GFSMA_700_rhum_081.txt.gz
RH
38 43 48 50 52 51 50 48 45 42 39 35 33 33 33 33 28 28 29 26 25 23 22 21 19 17 15 15 14 14 14 13 13 14 14 16 34 41 45 68 76 68 60
46 49 50 51 51 51 49 47 44 42 41 35 34 35 34 32 30 29 28 26 25 25 26 26 24 22 20 17 14 14 14 15 15 15 14 16 23 45 58 59 71 70 68
48 49 50 50 51 50 49 45 43 42 42 37 36 37 35 33 26 28 29 27 28 30 29 28 26 24 22 20 16 14 14 14 16 18 17 18 24 40 50 62 60 63 72
48 49 49 50 50 49 46 44 44 42 42 42 37 39 38 34 28 29 30 30 33 33 33 32 30 27 24 22 19 16 15 16 17 18 18 18 26 31 46 52 49 67 67
49 49 49 49 48 46 44 46 49 47 43 44 41 39 41 40 31 30 32 35 35 36 38 41 39 34 30 27 24 21 17 16 17 18 18 20 26 29 33 42 69 75 77
52 52 52 51 49 47 46 48 53 52 48 45 46 41 40 44 40 32 34 37 38 44 51 55 55 47 39 33 30 27 22 18 17 17 18 22 24 26 32 35 32 48 76
56 54 55 56 59 54 53 62 60 61 54 48 47 46 44 48 46 36 38 39 40 48 55 59 59 57 58 50 36 31 28 24 21 19 17 24 35 33 32 29 27 31 33
69 76 80 74 73 69 75 80 80 71 62 56 49 56 59 54 48 41 41 42 45 52 56 56 61 63 61 56 49 37 30 27 26 23 20 19 24 29 33 30 31 32 31
91 83 84 83 85 82 88 91 95 97 74 75 81 79 73 70 68 48 46 48 60 66 62 59 63 64 65 62 53 44 31 27 27 26 24 23 27 31 38 39 35 31 24
91 85 81 90 93 92 91 94 99 100 98 96 88 93 89 84 67 61 52 56 71 78 75 72 68 68 66 66 60 40 31 27 26 26 27 29 43 43 43 42 37 29 22
97 87 89 83 78 88 84 81 96 98 100 100 99 99 99 98 94 98 93 94 68 90 80 70 72 70 70 67 64 55 33 28 27 29 30 33 49 47 46 44 35 28 21
80 89 99 95 97 94 95 91 90 100 99 100 100 100 100 99 100 100 99 99 98 83 75 75 62 69 70 66 49 56 48 32 32 41 40 37 65 61 81 76 42 28 23
87 79 75 81 89 99 99 94 98 96 97 99 98 99 100 100 100 100 99 99 92 84 75 50 46 48 52 52 45 61 45 36 35 41 46 60 89 82 94 87 50 29 25
84 82 78 78 84 76 69 76 79 97 98 98 93 98 90 100 93 100 95 88 80 66 59 55 38 38 36 36 44 57 53 43 41 52 64 100 91 83 100 92 62 30 24
80 79 84 82 83 85 79 66 86 92 97 99 98 98 99 95 94 91 88 74 70 62 57 39 30 33 34 35 39 45 48 40 42 51 74 95 98 98 100 81 57 32 25
81 85 88 85 87 84 85 68 71 97 93 89 98 97 93 92 87 82 78 84 86 73 48 36 34 34 33 33 39 41 43 45 47 55 72 98 90 96 100 89 66 32 28
79 78 76 74 72 66 69 67 87 86 76 82 86 81 76 72 74 81 76 74 71 53 36 33 34 34 36 38 41 43 44 43 52 82 88 99 89 99 81 72 56 31 27
36 34 37 44 43 56 63 73 92 82 85 86 86 90 90 87 87 86 82 68 53 38 36 35 36 36 40 42 41 41 44 57 65 76 79 97 87 87 76 68 41 33 29
31 29 28 28 36 49 67 82 92 84 88 89 90 87 83 86 75 80 64 49 38 36 35 34 34 37 40 40 40 41 44 51 69 74 77 73 72 79 74 47 40 34 37
30 30 30 29 28 37 62 80 93 90 97 99 96 89 91 84 88 60 48 40 37 36 37 36 35 35 37 36 38 39 47 57 61 68 70 71 74 72 50 49 38 37 25
29 30 30 31 32 31 50 81 94 97 96 93 94 95 94 94 75 52 44 40 39 40 37 36 37 41 41 39 39 43 53 60 71 77 76 80 58 51 52 47 39 14 12
26 25 26 31 35 36 38 84 100 100 100 95 90 91 93 88 54 50 45 43 42 41 40 39 40 31 33 38 48 58 59 72 83 82 80 50 55 52 34 16 12 13 15
29 30 30 31 35 40 48 50 67 87 95 92 90 79 85 65 59 51 47 46 46 42 40 37 38 39 38 42 57 68 76 78 84 66 38 32 17 12 13 16 18 20 22
29 27 31 33 35 42 49 58 61 56 57 64 62 57 55 69 62 58 56 52 46 43 40 37 41 40 37 38 60 72 69 67 45 14 12 14 18 22 25 26 27 27 26
29 26 25 28 31 41 50 56 61 65 61 64 68 76 78 66 68 62 56 51 49 46 40 42 39 37 38 44 43 47 45 22 10 14 23 28 30 31 30 30 31 28 24
37 32 28 26 27 33 51 69 71 73 77 83 83 84 77 71 69 61 59 56 52 47 46 42 32 32 45 48 44 27 11 11 21 29 31 32 34 37 35 35 32 32 34

GFSMA_700_rhum_084.txt.gz
RH
26 28 32 34 40 47 50 51 50 47 44 42 37 34 31 32 31 25 26 26 25 23 23 25 27 26 24 23 28 18 16 12 11 12 13 14 14 20 36 43 46 67 73
27 28 34 40 47 51 51 52 50 47 44 42 38 36 35 35 33 28 27 26 26 25 30 29 29 28 26 24 22 19 16 13 11 12 13 12 13 15 22 31 47 58 61
32 34 40 47 51 52 52 51 50 46 44 42 40 36 36 38 35 30 28 27 26 31 32 33 33 33 31 28 25 23 22 19 14 12 14 14 14 15 21 36 40 40 57
36 41 46 50 51 51 52 51 50 46 44 43 42 42 37 38 39 35 28 30 29 34 35 35 38 44 45 41 34 30 27 24 21 17 14 14 15 17 21 26 40 55 48
41 46 48 50 50 51 51 50 48 46 48 48 45 44 43 37 37 40 31 31 32 36 37 39 46 52 54 54 50 40 33 29 26 23 19 17 16 17 20 24 32 62 84
45 47 48 49 50 50 50 47 45 46 52 55 53 47 45 44 41 44 45 33 35 37 39 42 46 53 53 56 58 56 49 34 30 28 25 22 18 17 22 25 28 34 50
54 56 52 50 51 51 51 50 52 49 53 62 61 54 48 46 53 50 45 40 37 40 43 51 49 54 56 58 62 61 57 52 37 29 27 26 24 21 20 26 29 28 28
57 60 58 57 56 57 57 58 62 62 70 70 79 71 64 70 65 56 54 46 42 44 46 56 58 59 64 65 64 63 62 56 47 35 28 26 26 25 23 25 31 33 32
65 75 75 72 76 73 78 75 69 73 82 84 90 90 83 76 76 67 66 56 46 48 52 72 76 73 70 68 68 67 67 64 54 36 28 28 28 26 26 33 33 38 36
99 97 85 78 80 91 84 82 94 94 88 98 99 99 97 98 98 90 82 70 54 60 71 73 78 86 74 69 68 70 66 57 57 45 31 30 33 31 28 37 43 42 37
100 98 99 82 85 90 75 76 90 93 96 99 97 95 99 100 100 100 99 87 85 98 97 92 100 99 73 53 59 68 68 50 55 55 35 29 37 41 39 44 51 51 43
97 98 97 86 73 62 74 76 80 83 86 90 90 100 100 100 100 100 100 100 99 98 96 97 87 74 47 45 44 49 47 44 60 46 39 35 42 45 57 62 48 55 59
85 76 89 85 78 96 90 76 73 88 99 97 97 99 97 100 100 100 100 100 94 97 89 86 73 58 50 40 40 39 39 41 57 56 51 44 47 42 62 81 73 79 75
86 84 77 74 69 90 84 84 95 100 100 87 100 99 98 97 98 82 99 83 83 98 86 76 71 60 40 34 34 35 36 37 41 47 42 43 45 47 76 72 63 75 70
82 81 82 82 84 81 83 88 87 87 96 99 95 90 95 92 95 98 92 100 94 88 73 70 68 56 35 32 32 32 35 37 40 40 40 42 40 42 56 77 57 72 77
84 83 82 82 83 82 84 87 88 79 73 88 100 100 100 100 100 100 98 97 84 82 82 78 69 41 33 34 36 37 37 39 41 41 42 42 43 66 86 78 81 75 74
84 82 80 75 76 76 75 75 70 73 64 81 97 86 98 97 89 83 82 80 84 88 81 72 50 37 35 37 38 40 41 41 42 41 40 39 53 63 70 64 77 65 68
38 36 35 33 32 35 47 47 54 66 72 84 81 81 86 84 88 85 86 89 82 81 64 50 37 37 34 36 39 39 41 40 38 37 39 44 58 57 64 76 71 71 55
36 35 33 32 31 29 28 33 51 70 80 87 85 86 86 90 97 95 92 78 71 59 51 41 38 36 38 37 36 36 39 38 37 36 40 43 49 62 70 69 70 64 43
30 30 29 30 31 31 31 30 44 87 88 96 90 92 96 97 94 90 91 90 88 60 50 42 39 40 39 40 38 42 40 38 38 40 50 54 61 67 69 72 64 46 43
32 31 30 30 30 31 31 32 39 78 93 100 96 97 99 100 96 95 93 91 69 58 48 44 44 41 39 39 39 33 32 32 36 42 54 68 74 74 73 53 51 50 45
38 36 33 31 28 28 33 39 39 42 100 98 98 99 100 100 96 93 92 81 52 50 47 49 47 42 40 37 38 38 39 44 53 55 65 74 82 64 51 52 50 43 21
34 34 34 33 30 30 30 36 45 55 59 99 100 97 99 100 100 96 92 68 64 49 44 46 45 43 39 39 41 40 41 49 60 78 83 77 48 45 34 18 14 13 14
30 32 32 34 33 28 31 36 42 44 50 62 80 97 99 100 99 92 78 75 60 52 46 46 44 43 40 40 39 37 40 48 61 70 65 26 14 12 14 17 20 22 24
32 32 34 35 32 29 28 31 37 45 49 52 60 66 69 70 75 71 81 70 62 58 52 49 47 43 42 40 37 39 39 39 45 36 13 12 16 24 28 29 29 29 28
21 18 17 24 37 38 36 34 39 50 56 69 72 68 68 70 74 78 83 70 69 63 58 56 51 46 42 32 35 43 41 36 14 10 14 24 29 31 32 33 31 30 28

GFSMA_700_rhum_087.txt.gz
RH
91 26 18 27 33 32 43 47 48 48 48 44 40 38 34 32 31 27 23 26 26 24 23 28 29 29 31 29 27 24 22 22 18 14 12 12 13 12 13 16 23 43 60
87 18 22 27 32 34 44 50 52 52 50 46 42 37 34 34 34 30 25 25 26 25 28 31 32 33 34 34 34 33 30 27 23 20 16 13 14 14 14 17 31 36 45
93 22 26 30 34 41 48 53 53 52 50 47 44 43 39 36 36 34 29 26 26 26 32 34 35 37 42 46 46 45 43 36 30 26 23 19 16 15 14 18 21 36 45
72 26 32 38 40 48 51 52 53 52 50 46 44 43 43 41 37 38 38 31 28 28 33 36 38 43 48 53 54 53 52 50 38 31 28 25 21 18 16 18 26 39 46
59 28 34 44 46 50 52 52 52 51 50 48 49 50 46 44 44 41 42 41 33 31 33 37 40 46 49 52 55 57 57 55 51 42 33 29 26 24 20 18 21 28 49
33 33 39 44 47 50 51 51 51 51 47 46 51 61 60 49 45 56 47 45 42 37 35 36 41 48 54 55 56 59 60 58 58 55 49 36 29 27 25 22 20 26 34
35 37 43 46 48 50 50 51 51 49 48 49 53 53 61 58 55 57 53 48 48 47 40 38 41 46 52 56 63 66 64 62 61 60 57 45 35 28 26 25 24 27 33
43 44 45 47 49 49 50 50 52 53 55 61 66 71 76 72 67 72 65 59 58 54 45 43 45 50 67 74 73 71 68 65 63 63 62 52 39 30 27 25 25 26 27
73 70 67 62 59 59 62 64 67 72 74 73 77 91 88 89 88 87 82 78 78 67 49 50 52 57 67 75 80 80 67 61 62 62 48 48 44 31 29 27 24 25 32
96 90 94 86 88 76 83 82 92 84 87 90 97 97 94 94 98 100 98 98 88 82 59 56 66 69 70 74 78 92 61 51 63 62 37 53 50 35 33 31 29 29 34
100 100 100 100 93 97 90 94 92 87 93 82 84 93 97 100 99 98 100 100 99 99 78 63 73 92 97 97 78 52 44 42 55 43 48 52 39 34 33 34 34 36 40
99 99 98 98 98 95 93 86 89 82 73 72 78 78 83 92 94 99 99 99 100 100 99 100 100 99 86 76 67 50 42 38 36 35 38 54 54 50 40 41 45 56 65
93 89 93 98 99 100 98 100 95 85 80 87 81 79 76 84 94 98 94 100 100 100 99 98 95 93 81 72 67 42 37 37 38 38 37 39 44 39 40 44 45 48 48
100 92 80 78 88 89 89 96 92 99 85 97 100 98 92 97 96 98 100 97 100 98 96 99 100 92 72 76 64 39 37 37 37 37 37 38 38 41 45 43 49 54 48
98 94 94 92 96 90 86 84 89 97 96 100 99 98 99 98 98 99 89 80 90 92 100 99 96 82 82 76 50 38 36 36 38 38 37 36 36 41 44 41 44 51 41
91 93 91 95 97 93 92 93 87 83 94 92 81 98 99 98 100 99 96 92 93 100 98 90 86 88 80 62 39 38 39 40 42 43 41 41 41 44 42 44 49 54 59
87 88 87 87 88 88 88 88 88 89 88 85 82 76 94 99 100 100 100 100 100 96 83 82 87 81 66 48 39 37 35 38 38 40 38 39 38 39 38 46 51 50 51
42 44 50 52 52 52 55 56 61 65 68 67 71 79 99 97 96 99 88 84 82 80 82 89 84 78 60 44 41 40 38 38 38 39 38 39 38 42 39 44 56 58 61
31 32 34 35 35 34 33 31 30 38 44 51 79 87 99 88 88 86 89 89 89 92 84 79 80 60 47 40 37 38 38 38 36 39 41 41 40 40 42 54 58 58 64
35 34 33 33 33 33 34 34 34 32 31 53 92 100 97 90 92 95 96 100 95 92 85 84 60 48 41 36 37 39 38 36 38 35 37 38 40 45 50 58 64 68 72
40 40 39 36 34 33 32 31 32 36 36 37 100 99 100 99 99 100 99 98 93 92 93 86 51 46 42 41 41 40 37 35 38 37 38 41 45 52 61 70 72 71 54
32 35 36 38 38 37 34 32 29 28 36 87 83 99 91 100 96 100 100 98 92 93 88 85 62 50 45 44 41 37 36 37 39 39 40 46 54 66 71 74 59 54 48
27 28 29 31 32 34 36 34 32 31 29 34 52 61 90 85 95 95 88 89 99 95 91 75 60 54 49 49 44 39 37 39 38 40 49 54 70 78 59 48 49 41 33
34 32 30 28 27 28 30 33 33 31 34 37 44 66 74 83 82 91 96 80 96 100 89 64 61 58 54 49 44 41 40 39 39 43 50 64 69 45 29 18 13 14 14
36 32 27 28 30 31 31 33 33 31 30 32 37 44 58 80 97 99 91 87 81 84 67 69 63 56 55 52 46 43 41 38 38 38 42 44 24 13 13 16 20 23 24
47 44 34 25 21 20 19 25 34 38 35 31 33 42 56 56 66 77 82 82 78 79 78 76 62 57 55 54 49 44 35 39 39 40 31 14 12 19 26 30 30 30 28

GFSMA_700_rhum_090.txt.gz
RH
99 99 92 70 30 27 32 32 40 43 44 47 44 39 36 33 28 29 26 23 25 24 24 25 29 31 34 35 36 38 38 34 30 27 24 20 17 13 11 11 13 20 32
94 99 98 68 28 29 36 35 44 47 51 51 48 43 40 37 33 30 27 26 26 26 25 29 32 34 37 41 45 46 47 46 42 37 31 27 22 19 16 13 13 16 24
100 92 98 45 25 32 40 41 48 51 53 51 48 46 43 39 36 36 31 27 24 26 26 32 35 36 41 46 48 51 51 50 49 47 41 34 28 26 22 19 16 14 19
98 100 88 23 28 34 40 45 51 54 54 53 50 46 44 43 42 36 36 34 32 27 29 31 36 39 43 48 50 51 53 53 52 51 51 47 39 32 28 25 21 18 18
53 92 92 26 33 38 42 46 52 54 54 53 50 47 47 45 44 45 43 38 37 38 34 32 34 39 43 48 49 50 51 56 59 58 56 55 52 48 36 29 26 23 21
18 26 90 54 35 40 45 47 52 53 53 52 51 47 50 54 54 55 50 46 45 42 44 40 35 37 42 46 48 51 58 63 63 60 59 58 58 54 46 36 28 25 24
26 31 83 75 34 40 45 47 52 53 52 52 48 47 51 55 56 58 57 53 51 46 47 48 44 40 43 49 54 60 67 69 68 66 63 62 61 57 49 38 30 25 26
58 65 82 62 38 41 47 50 51 51 52 51 50 57 63 65 65 68 69 70 68 61 59 56 52 46 50 56 60 68 70 71 70 70 62 62 56 46 49 42 32 27 27
65 54 53 47 44 45 49 51 51 53 56 63 71 74 77 82 90 93 92 89 87 86 81 76 64 50 51 56 59 69 73 74 75 78 59 64 50 53 53 43 33 28 28
97 92 67 56 48 52 53 56 58 68 77 82 90 91 92 91 94 84 96 97 94 98 99 97 96 65 56 58 68 77 83 95 72 49 55 60 36 52 42 35 31 30 31
99 99 99 100 89 78 89 90 87 88 91 92 93 88 98 90 83 82 96 96 95 95 98 100 97 82 70 81 86 97 94 76 52 46 38 36 32 53 55 53 47 37 39
100 99 99 99 100 98 100 98 100 99 98 98 96 92 83 78 72 77 80 86 83 90 90 99 100 99 99 99 100 89 76 64 45 41 37 32 30 40 46 42 34 35 35
100 100 99 100 99 99 100 99 98 98 98 98 91 86 85 86 83 95 94 91 84 88 93 98 97 99 100 100 93 79 71 60 38 34 34 32 31 31 34 36 38 37 37
100 99 99 100 100 100 99 98 99 100 100 100 100 97 86 96 99 100 100 99 95 97 100 100 100 99 100 100 92 81 76 53 39 38 36 32 31 31 32 36 38 37 38
98 98 100 99 97 95 97 95 96 99 100 99 100 98 94 99 100 100 100 99 98 99 98 100 100 98 100 98 87 82 76 48 40 36 34 37 35 32 32 36 34 37 43
99 100 100 100 100 99 100 99 99 99 99 99 98 98 94 97 97 98 99 100 88 86 95 91 95 98 98 86 81 79 62 40 35 32 33 35 36 36 34 34 35 36 41
95 93 88 96 98 98 99 97 96 95 92 91 88 92 93 83 89 98 95 99 100 99 94 91 98 98 89 83 79 63 44 35 34 33 35 36 36 36 36 36 35 33 37
59 73 86 92 92 91 92 92 90 89 92 91 88 87 84 86 84 90 96 100 100 90 100 100 99 86 85 78 67 52 40 36 35 38 36 36 38 38 39 38 38 40 40
39 38 39 41 41 40 40 39 39 41 40 42 54 71 74 76 82 92 98 98 100 99 95 91 84 87 79 72 56 47 41 39 40 38 35 33 37 36 36 38 39 42 44
40 39 38 36 34 35 35 35 35 35 35 34 33 34 42 76 90 100 100 95 90 88 87 87 96 89 84 77 56 49 43 41 41 37 34 33 33 32 34 36 40 49 59
39 39 39 40 38 38 37 34 33 32 32 32 32 33 39 92 80 95 100 92 94 100 99 100 98 94 92 81 58 48 42 42 39 37 34 37 38 37 38 41 51 59 63
29 31 32 32 34 36 38 39 39 37 34 32 31 32 34 60 88 100 100 96 97 96 100 100 96 92 87 77 55 47 44 44 40 35 36 38 35 36 41 50 62 66 68
26 24 22 21 23 26 29 31 33 35 37 34 32 33 46 70 87 90 92 99 100 100 92 99 96 97 90 84 56 48 47 45 40 37 38 37 35 41 47 56 59 49 46
22 23 26 28 28 28 27 27 28 30 32 34 34 33 36 50 82 84 91 97 92 97 97 99 95 90 92 80 60 54 49 46 40 38 38 38 40 46 56 51 39 33 23
26 25 25 26 26 30 30 30 29 30 31 33 34 33 34 44 57 77 94 97 98 100 93 97 99 95 94 72 64 55 51 48 42 40 39 38 42 49 38 20 14 12 13
33 41 45 45 44 42 38 32 27 24 24 27 39 37 35 38 58 69 82 91 95 98 100 96 80 86 79 76 66 59 54 49 45 42 37 38 40 26 14 13 16 20 24

GFSMA_700_rhum_093.txt.gz
RH
95 91 92 93 100 41 38 33 32 31 36 43 43 41 37 34 32 30 26 24 22 26 25 23 25 29 33 36 40 42 44 46 45 45 43 40 34 28 23 19 16 14 14
100 100 97 94 100 80 38 37 36 34 43 46 48 46 43 38 35 34 32 28 25 25 25 25 29 32 35 40 44 46 48 48 49 47 46 45 42 36 29 26 22 19 17
93 99 100 99 99 87 45 46 44 34 45 48 50 49 48 44 39 36 35 32 27 25 25 26 30 34 37 42 45 48 48 49 52 52 54 53 50 48 43 34 29 25 22
72 88 99 100 99 71 53 47 43 40 45 48 53 53 50 47 44 39 36 35 35 29 27 29 29 34 38 42 45 47 47 50 52 56 57 57 56 53 52 50 41 31 26
80 90 86 100 98 94 53 49 50 41 48 51 54 54 52 47 45 44 44 43 40 37 38 36 33 33 34 38 42 45 46 49 53 58 59 61 60 56 55 54 50 40 31
86 94 90 100 100 93 50 54 52 43 49 54 55 54 53 49 48 48 46 45 45 45 44 44 44 42 38 37 40 43 46 50 54 61 62 63 63 60 57 54 53 46 35
92 87 93 95 99 89 50 49 50 49 51 53 55 54 52 50 47 51 54 52 52 54 51 52 48 50 49 43 41 43 58 52 58 62 62 61 62 63 56 47 41 43 37
100 90 91 86 63 90 55 51 51 52 50 53 54 53 53 50 49 52 56 59 61 66 64 70 60 58 58 54 48 49 53 56 58 65 61 62 68 66 57 40 46 46 38
99 100 92 48 60 100 60 50 47 51 52 53 53 53 53 52 55 73 80 79 83 81 83 72 79 80 76 69 56 53 56 60 63 68 77 82 54 59 46 46 41 35 32
97 99 98 76 70 95 60 49 54 56 59 55 54 55 58 70 78 84 93 92 86 85 82 91 79 82 94 88 89 79 63 67 73 79 90 59 44 39 34 37 48 48 49
100 100 100 96 96 95 78 66 63 62 64 64 71 75 84 87 94 90 91 81 90 84 91 91 97 94 79 95 97 92 80 74 92 96 81 47 40 36 30 28 38 44 36
99 100 99 96 87 83 83 95 94 92 84 85 86 93 98 99 99 99 98 97 96 80 78 82 86 82 89 100 88 98 98 98 96 81 62 42 36 33 29 26 26 29 34
100 100 100 100 98 95 97 99 91 81 88 96 100 99 99 98 98 98 97 94 87 92 94 86 94 96 98 100 99 100 98 97 84 71 56 36 31 30 27 29 26 25 26
100 100 100 100 100 100 99 100 98 100 100 100 100 100 97 97 98 100 99 90 92 97 100 100 100 99 100 100 100 100 100 95 80 69 49 35 32 29 30 26 27 27 28
100 100 100 99 100 100 100 98 99 100 100 99 99 99 100 100 100 99 98 100 100 100 100 100 100 100 100 100 100 99 100 94 78 72 43 33 30 28 28 29 31 31 29
100 100 100 100 98 100 100 98 99 99 99 96 98 100 100 100 100 100 99 100 100 99 95 83 99 98 100 100 100 100 98 87 76 62 40 34 31 30 31 32 31 30 29
92 96 96 98 98 99 100 100 100 99 97 99 99 100 100 100 100 100 100 99 99 99 98 97 93 97 95 95 98 97 89 82 70 51 37 33 32 32 33 34 34 34 33
52 70 83 90 90 89 94 99 99 100 98 95 92 95 98 98 97 96 95 100 98 99 100 99 100 98 99 98 100 90 84 69 54 42 35 32 33 33 33 33 35 34 34
42 40 37 36 37 41 44 47 49 58 68 69 73 75 78 79 82 81 91 91 99 92 99 100 100 90 99 94 98 92 76 58 46 38 34 33 34 35 32 32 31 31 32
46 45 45 45 44 42 38 36 36 35 34 36 36 36 35 34 36 50 84 73 88 99 99 94 99 98 96 92 94 85 78 56 41 38 36 38 36 34 31 34 35 34 33
32 34 35 36 36 38 40 42 42 42 40 36 34 33 34 36 36 33 43 53 98 100 99 100 92 86 84 87 96 94 78 62 45 40 39 39 35 33 32 33 33 34 39
19 18 19 20 22 26 28 31 32 34 38 41 42 39 35 33 32 35 69 95 99 99 99 98 94 98 100 100 98 94 85 66 51 46 43 40 36 32 33 34 33 38 42
18 17 18 20 22 24 26 28 27 27 28 31 34 37 39 36 34 49 64 82 82 96 99 100 99 99 100 100 98 93 81 74 54 46 41 42 38 35 34 33 37 41 49
16 16 18 20 19 20 20 23 26 29 30 30 28 30 33 37 36 36 85 49 100 100 99 99 99 99 99 98 98 93 85 78 52 47 45 43 39 36 36 36 38 45 48
12 12 14 17 19 23 31 31 29 29 30 29 28 30 34 35 37 40 51 69 87 100 99 98 100 100 99 98 98 95 88 76 57 52 50 45 40 40 38 38 40 43 30
12 18 24 35 40 42 45 46 47 46 41 36 27 22 22 35 43 40 41 56 83 78 100 99 100 100 100 95 96 92 79 63 61 55 52 47 43 40 38 40 36 20 13

GFSMA_700_rhum_096.txt.gz
RH
91 89 89 85 87 96 100 56 33 35 34 28 28 31 30 33 34 30 25 25 23 20 23 24 23 25 29 33 37 41 43 44 47 48 47 45 45 44 41 35 30 26 23
70 95 88 98 95 99 98 74 38 38 39 37 33 36 38 38 37 35 32 31 28 25 24 25 24 28 32 36 41 44 45 46 47 49 51 53 53 53 51 48 45 37 31
48 64 89 93 100 100 99 100 48 47 46 45 41 46 43 42 41 37 35 34 31 28 25 27 27 28 34 37 42 45 46 46 47 48 49 52 52 51 53 52 50 50 46
58 58 62 71 72 99 93 100 91 70 52 46 50 50 51 49 47 43 39 36 35 34 29 28 28 29 33 36 40 44 45 46 46 46 46 51 52 53 56 56 56 53 51
69 68 54 51 57 72 91 100 100 95 61 50 53 56 54 54 52 48 44 42 40 37 37 38 32 32 33 33 35 39 38 41 42 44 45 50 55 55 53 55 55 52 49
75 70 60 73 84 87 84 86 99 88 80 61 56 57 57 56 54 50 46 45 44 44 45 44 41 42 42 41 40 39 39 40 42 51 48 54 55 55 54 54 64 50 36
81 79 76 76 89 87 83 90 96 95 70 62 57 58 57 56 55 53 49 49 50 49 50 51 51 51 49 48 49 48 46 45 55 50 50 54 54 56 58 69 63 39 39
85 100 90 85 88 98 93 91 100 97 77 76 60 58 57 56 55 53 51 48 51 57 57 59 61 61 67 68 67 66 59 58 59 52 52 53 58 67 75 52 52 37 37
97 96 100 89 78 100 98 100 98 90 72 64 58 57 58 56 54 53 52 51 55 62 69 77 75 83 78 78 82 93 96 76 80 76 67 61 64 86 72 40 36 34 38
97 98 99 99 100 100 100 96 100 97 83 78 70 59 59 56 54 55 55 58 71 78 85 88 86 97 91 91 88 94 98 91 89 85 80 77 78 88 52 39 33 27 33
81 98 97 98 98 100 99 97 99 98 97 90 69 62 59 59 58 58 60 76 86 89 93 83 83 84 82 86 84 88 89 93 99 99 94 97 94 79 45 38 29 24 21
86 99 100 100 100 100 100 100 100 97 95 74 71 75 71 75 79 82 85 96 99 99 91 90 96 97 90 83 82 82 92 90 100 99 100 99 80 64 39 30 26 25 23
98 100 100 100 100 100 100 100 100 98 96 94 79 76 90 98 99 92 99 100 98 97 99 99 99 98 92 91 92 97 100 94 99 96 100 88 76 57 34 25 26 25 23
100 100 100 100 100 100 100 100 99 98 99 99 99 99 100 99 100 98 99 100 98 98 98 98 100 98 91 99 99 100 100 100 100 100 98 91 70 50 31 27 27 26 27
100 100 100 100 100 100 99 98 98 98 100 100 100 100 100 100 100 100 100 99 98 99 97 96 91 100 100 100 100 100 100 100 100 99 98 94 70 44 31 29 28 27 26
100 100 99 99 100 100 100 100 100 99 100 100 99 100 100 100 99 100 98 98 99 100 98 100 100 99 98 99 100 100 100 100 99 100 98 92 64 40 30 28 28 29 29
79 89 93 96 98 100 100 100 100 100 100 100 100 99 98 99 100 100 100 99 99 100 100 99 99 100 96 98 100 99 100 100 100 97 93 85 51 36 30 28 30 30 29
46 46 47 58 77 78 79 95 99 98 98 98 100 100 100 100 100 99 100 99 99 99 99 99 99 100 100 97 99 100 100 100 96 90 79 56 42 33 30 32 33 31 29
44 43 41 40 42 44 45 51 62 66 54 62 80 84 87 92 93 94 96 97 99 100 100 100 99 99 99 100 100 100 100 99 94 83 64 43 36 31 29 31 32 30 30
27 29 31 34 37 39 40 40 42 42 44 42 40 40 43 45 42 39 39 39 39 55 74 97 91 99 100 99 100 98 99 99 97 78 58 40 34 30 30 32 32 31 31
13 14 17 19 19 20 22 26 30 34 37 39 42 44 41 38 37 38 39 37 37 69 94 85 77 99 99 99 100 100 99 98 96 83 62 42 36 33 35 35 32 31 30
12 12 12 12 11 12 13 16 21 22 22 24 30 34 37 41 41 40 37 37 40 41 68 98 99 97 95 99 96 99 98 93 98 86 66 45 35 35 38 36 32 31 30
12 12 12 12 12 12 13 14 14 14 16 20 26 27 27 34 36 39 40 39 42 42 100 76 99 100 99 100 98 100 96 99 99 90 72 52 40 38 39 37 35 33 33
10 10 11 12 16 24 26 26 27 29 29 29 28 28 29 29 32 36 39 40 40 44 100 100 99 99 99 99 98 100 100 100 92 88 80 64 47 44 41 38 36 35 35
4 4 5 6 7 9 11 13 16 23 33 42 47 44 35 27 25 32 42 41 44 54 100 96 100 100 100 99 97 99 99 99 99 95 87 68 51 46 44 41 38 37 38
9 9 8 8 8 7 6 5 5 5 6 8 13 27 44 50 38 22 25 54 50 81 83 100 80 100 98 99 98 98 96 98 98 92 88 71 57 50 45 44 41 39 38

GFSMA_700_rhum_099.txt.gz
RH
73 70 77 96 94 94 82 92 92 60 37 37 35 30 30 35 37 33 28 25 23 22 20 21 24 23 24 28 33 38 43 44 44 44 46 47 49 49 50 51 49 45 45
52 58 56 64 84 93 91 97 95 97 41 41 40 34 38 38 41 41 38 31 28 29 26 33 40 28 27 30 33 39 43 44 44 45 44 43 43 43 44 46 51 50 49
39 50 47 49 56 79 89 97 100 100 90 48 45 36 40 46 45 45 43 39 34 31 30 27 30 40 34 31 35 40 44 46 45 44 45 44 43 43 43 46 48 49 51
39 43 46 50 51 59 77 80 87 96 99 88 54 48 43 51 51 50 48 44 39 36 34 33 30 28 37 33 34 38 41 43 43 41 42 43 43 44 46 46 48 49 57
46 55 50 57 60 57 58 68 77 82 91 95 76 54 46 52 55 56 52 48 45 42 38 38 38 30 30 31 32 33 35 36 37 38 40 46 47 45 50 49 50 55 62
62 64 63 57 58 63 64 60 74 79 95 96 97 92 55 59 60 58 56 52 48 46 44 43 42 40 40 40 40 42 43 44 44 45 46 50 48 48 51 54 53 65 63
58 69 71 67 70 74 67 72 63 72 89 97 94 94 92 64 61 58 58 54 50 48 47 46 46 48 48 48 50 55 54 54 59 59 59 62 58 57 57 58 60 69 52
53 68 70 73 74 85 86 89 80 91 93 94 100 100 96 72 58 59 57 56 54 51 51 53 56 58 61 60 63 72 77 79 77 87 80 87 87 80 74 71 80 61 43
50 66 75 76 84 87 94 94 88 95 92 96 100 97 83 60 66 62 66 57 55 53 50 58 60 63 71 76 81 81 82 79 83 83 90 82 90 91 85 77 83 51 35
56 58 72 91 87 91 97 100 93 98 99 98 100 99 94 96 80 64 57 58 57 56 55 63 68 73 86 89 92 90 90 83 92 86 87 90 96 83 92 78 79 44 36
53 69 69 85 91 93 100 100 99 100 99 100 100 100 99 93 98 82 59 59 60 62 65 65 78 88 91 92 93 96 94 92 91 86 90 92 97 94 90 78 66 40 32
80 95 75 78 86 92 98 100 98 97 98 100 99 100 99 93 98 91 75 70 78 75 88 86 90 95 90 91 94 96 100 98 93 91 96 97 98 94 93 76 59 35 26
97 99 93 94 93 99 100 98 100 100 100 100 100 100 100 97 94 87 93 98 98 83 99 98 94 98 98 99 98 98 99 100 98 98 100 99 99 98 95 75 55 33 27
100 100 100 100 100 99 99 99 100 99 100 99 100 100 99 100 96 97 99 98 99 99 98 97 100 99 100 100 99 100 99 99 99 100 98 100 100 100 89 73 51 32 27
99 100 100 99 100 100 99 100 100 100 100 100 99 98 99 100 98 98 99 99 99 100 98 99 99 100 99 100 99 91 99 99 100 100 100 100 100 100 96 76 46 32 28
97 100 100 100 100 100 100 100 100 100 99 99 100 100 100 100 99 100 100 100 99 99 98 97 91 99 99 98 100 98 100 100 100 100 100 100 99 99 86 76 41 31 28
49 49 67 84 96 98 99 100 100 100 100 99 100 100 100 100 99 100 100 99 100 100 100 99 100 100 100 99 99 99 100 100 100 100 100 99 99 99 92 59 39 30 29
46 48 48 48 48 47 45 48 75 98 98 99 100 100 100 99 100 100 100 100 100 99 100 100 99 99 100 99 99 99 100 100 100 100 99 99 90 76 61 45 35 30 29
24 26 27 30 34 39 43 44 45 45 46 44 49 65 68 91 98 99 99 98 97 97 98 98 98 100 99 100 99 99 97 99 100 100 99 95 87 65 48 39 34 30 29
12 11 11 12 14 15 17 20 25 31 36 40 42 43 43 42 40 41 47 62 71 62 61 87 85 92 83 94 99 99 100 100 100 98 99 94 79 60 45 37 33 31 31
10 9 10 9 9 9 9 10 10 11 13 17 20 26 33 38 43 44 43 39 37 37 42 48 69 96 93 100 99 96 99 100 99 99 98 91 81 61 42 36 33 35 33
13 13 12 13 13 13 13 13 12 11 10 11 12 15 19 21 24 31 38 44 44 41 37 36 87 84 76 98 100 90 99 99 97 96 97 96 86 66 43 36 34 35 33
10 9 8 7 7 7 8 9 10 12 14 15 18 22 24 27 29 27 28 33 38 44 47 42 35 37 45 89 93 99 100 96 99 99 95 97 93 72 49 38 36 37 34
4 4 4 4 4 4 4 4 4 5 6 7 8 10 16 22 31 34 30 29 39 43 55 94 69 44 36 90 69 99 99 100 100 96 85 99 98 82 58 40 38 40 38
7 7 7 7 6 6 6 6 6 6 6 5 5 6 6 5 6 13 31 34 27 35 59 70 100 95 88 100 100 99 98 98 98 94 97 100 100 96 70 46 42 42 40
8 9 8 7 6 5 6 6 5 5 5 5 5 5 4 4 6 8 6 16 36 33 27 88 99 99 88 99 99 98 100 97 94 98 98 99 99 98 84 51 43 44 44

GFSMA_700_rhum_102.txt.gz
RH
57 58 81 75 80 88 89 83 98 86 88 73 40 36 34 29 27 28 30 30 28 26 24 22 22 23 23 24 28 33 40 43 44 43 43 41 39 40 42 42 43 45 49
50 49 49 74 61 57 68 81 91 92 92 100 73 41 39 34 32 34 33 34 34 31 29 30 49 61 33 25 28 32 39 44 45 44 43 41 41 42 42 43 45 45 46
45 41 37 40 48 55 69 71 78 87 91 92 100 53 43 39 34 34 39 37 37 37 35 35 31 35 58 62 38 33 36 42 45 45 42 40 41 42 42 44 47 47 46
41 38 39 32 31 42 49 68 66 73 76 86 87 100 91 47 39 42 38 45 42 38 38 37 38 34 33 39 50 33 36 40 42 41 40 39 40 44 48 46 48 49 50
45 42 38 33 30 44 48 49 67 68 61 82 88 92 95 86 60 47 39 44 50 44 42 40 40 42 36 34 36 48 33 34 36 37 39 42 45 49 50 50 52 55 57
41 36 30 38 52 50 55 58 58 74 75 68 85 94 97 98 91 59 55 49 55 52 49 46 46 42 44 40 33 40 52 38 44 48 49 52 58 62 75 77 73 70 72
38 34 26 36 55 60 63 68 69 71 61 66 74 87 92 100 91 93 85 71 59 60 56 50 48 48 47 50 48 45 56 60 53 62 75 76 70 77 73 83 81 77 71
40 27 22 31 54 61 67 62 66 73 79 79 77 73 84 96 99 87 92 90 65 82 65 58 50 50 50 53 61 59 63 66 69 78 75 72 74 84 84 91 91 80 76
37 31 31 40 48 55 64 73 83 84 90 94 90 98 91 96 88 92 91 78 87 91 70 59 55 55 56 60 65 70 74 78 79 78 83 80 80 79 81 84 87 88 82
53 56 56 49 50 56 63 77 86 90 94 98 96 91 99 98 98 96 93 78 90 70 75 70 62 60 62 64 67 77 90 92 90 88 83 83 84 82 83 84 88 85 79
63 57 48 47 56 60 63 80 91 80 88 100 98 78 98 100 100 99 100 100 85 86 81 79 69 64 65 72 84 95 100 99 94 90 89 91 93 94 97 98 98 88 77
93 74 73 66 86 84 91 84 89 96 98 98 100 99 96 100 100 100 99 100 98 99 99 99 93 88 81 85 90 95 100 99 100 94 97 98 97 99 96 99 97 92 74
100 99 90 88 97 90 89 97 89 97 99 99 100 99 100 100 100 100 100 99 99 96 91 85 86 89 95 93 98 99 89 99 98 95 97 98 98 98 98 98 88 95 76
100 100 100 100 100 100 100 99 100 100 100 100 98 99 100 100 100 100 99 100 100 100 99 85 95 98 98 100 100 100 100 100 96 98 99 98 96 99 99 100 99 100 78
99 100 100 100 100 100 100 100 99 100 100 100 100 100 100 100 100 100 100 100 100 99 97 97 99 100 100 99 99 99 99 98 99 99 96 94 98 100 100 100 98 96 71
79 81 96 99 100 99 100 100 100 100 100 100 99 100 100 99 99 99 99 100 99 99 100 100 100 100 99 99 99 98 99 100 99 89 86 94 100 100 100 99 100 89 74
54 54 53 51 67 89 99 100 100 100 100 100 100 100 100 100 100 99 99 98 100 99 99 99 98 99 98 100 100 100 100 100 98 98 99 100 100 99 99 100 100 85 78
29 30 32 34 38 42 45 48 46 50 61 87 100 100 100 99 100 100 99 100 100 100 100 100 99 99 99 99 100 100 99 98 98 99 100 100 100 98 100 99 99 96 63
12 12 13 13 15 17 20 24 30 36 42 44 45 45 46 58 77 96 98 98 99 99 99 100 99 98 96 98 99 98 99 99 100 99 100 100 99 100 99 100 90 62 48
10 10 10 10 11 11 10 12 13 13 16 18 23 29 36 40 43 44 46 59 71 76 77 79 85 89 95 97 98 100 97 97 99 100 100 99 99 100 97 82 69 50 42
13 13 13 12 12 12 12 12 12 10 10 12 13 16 18 21 24 30 37 43 45 44 43 41 41 42 46 51 91 99 84 97 100 90 99 100 99 100 100 90 63 48 40
11 10 9 8 7 6 6 5 5 5 6 8 11 13 14 15 16 19 23 23 28 38 45 46 45 42 38 41 63 72 94 99 99 95 99 99 99 99 97 83 66 51 40
7 5 4 3 3 3 3 3 3 3 3 3 3 4 4 6 9 14 19 22 26 27 29 38 42 48 47 42 86 76 99 86 96 100 98 99 100 98 99 96 74 55 42
3 3 4 5 5 4 4 4 4 4 4 4 4 4 4 4 5 5 5 6 11 21 28 30 31 42 52 95 81 100 95 86 99 100 100 99 98 96 99 99 95 67 45
5 6 7 7 6 6 6 6 6 6 5 5 5 5 5 5 4 4 5 5 5 5 6 16 30 30 42 82 100 100 100 92 100 100 99 100 100 98 96 87 92 75 52
8 8 8 8 8 8 8 8 7 6 6 7 7 8 8 9 10 10 9 9 8 6 5 5 8 26 31 42 99 98 100 96 100 100 92 100 100 100 98 87 98 86 57

GFSMA_700_rhum_105.txt.gz
RH
75 65 70 80 87 84 80 80 74 74 82 86 84 88 66 40 35 32 28 22 24 23 21 17 26 20 19 23 23 26 31 37 42 45 45 43 42 40 41 42 42 43 44
70 66 59 61 52 73 83 69 67 83 82 81 81 76 93 56 40 36 32 27 27 29 28 24 22 35 61 38 24 26 32 38 45 46 45 43 43 42 42 43 44 46 47
53 51 50 48 44 38 47 64 69 71 77 86 94 85 78 84 56 46 37 32 27 30 31 31 29 27 30 62 64 46 40 35 43 47 47 46 42 41 42 47 48 47 49
53 50 46 41 37 38 37 31 32 48 83 82 86 95 92 95 94 77 46 40 35 31 32 35 35 34 32 31 61 63 60 46 39 44 46 42 40 42 46 50 54 57 62
56 52 46 45 46 43 40 36 34 36 41 65 79 84 90 97 91 90 89 86 45 45 36 31 38 38 36 35 32 36 43 50 42 41 39 38 42 47 54 61 71 72 76
60 52 50 48 44 40 36 32 41 51 51 50 54 76 76 73 93 100 100 93 62 93 48 45 39 42 44 41 41 34 34 51 54 49 41 46 49 55 63 67 72 77 80
58 55 49 46 44 38 34 30 51 57 61 61 61 58 67 85 76 80 93 99 95 91 60 51 50 54 46 48 46 45 42 42 55 67 70 56 62 69 68 72 74 73 81
57 52 48 45 43 39 31 23 43 59 61 64 69 78 74 62 71 74 67 82 92 98 66 68 74 55 52 56 54 51 55 57 56 62 71 76 76 74 73 74 72 77 81
53 47 47 46 41 42 38 26 38 53 67 71 77 82 84 80 75 68 72 76 71 81 89 81 86 69 59 61 57 56 56 66 70 72 80 86 83 81 76 80 77 85 84
53 51 43 34 36 36 32 32 47 56 60 71 84 86 90 95 94 100 97 86 85 82 92 75 81 74 73 76 73 65 59 65 82 85 84 87 90 90 88 93 92 90 90
51 33 48 56 54 48 46 52 60 65 67 76 86 90 93 96 100 100 99 99 91 87 100 91 100 89 91 96 78 68 71 73 98 94 96 95 89 93 98 100 98 93 91
42 72 79 75 81 73 55 61 69 80 89 88 86 93 98 84 100 100 98 100 97 98 98 100 99 99 94 97 88 95 95 93 100 100 99 100 97 98 99 99 99 100 91
80 96 100 99 95 84 84 86 89 92 95 88 87 89 100 99 100 98 100 99 100 98 100 100 99 99 99 89 86 89 98 96 95 98 98 100 98 99 100 99 100 100 99
100 99 100 100 100 97 100 100 100 99 100 100 100 100 100 100 98 100 100 100 100 99 100 98 100 100 97 95 93 98 98 98 100 99 100 99 96 98 98 100 99 99 94
95 93 92 99 100 100 100 100 100 100 100 100 99 99 100 100 100 100 100 100 100 100 100 98 99 100 100 99 97 99 98 96 99 100 100 99 94 97 98 100 100 99 100
92 81 69 75 92 99 99 100 100 100 99 100 99 100 100 99 100 98 100 100 100 100 99 100 98 100 100 99 100 99 98 100 99 98 99 96 99 98 98 99 100 100 100
41 44 43 41 43 52 52 80 96 100 100 100 99 99 100 100 100 100 100 100 99 99 99 99 99 100 100 100 100 100 99 100 97 99 99 100 98 99 97 100 100 100 100
20 19 19 19 20 20 22 24 31 40 44 46 56 80 100 100 100 100 100 100 99 100 100 99 100 100 99 100 100 100 100 99 99 98 98 98 100 99 99 99 100 100 99
12 11 11 11 12 11 11 10 11 15 19 24 32 40 45 46 57 67 95 100 100 99 100 100 100 99 99 100 99 98 100 100 100 99 100 100 91 84 99 100 100 99 98
13 13 13 13 13 13 13 13 13 12 12 11 11 13 17 22 29 37 44 49 56 78 84 90 98 98 100 100 100 100 99 100 100 100 100 99 97 100 100 99 97 96 98
13 12 10 9 7 6 5 5 5 5 6 8 11 12 12 12 13 14 16 23 32 43 48 53 60 64 60 57 68 71 95 91 100 100 98 100 98 100 99 98 94 100 100
10 8 6 5 4 4 4 4 4 4 4 4 3 3 3 4 6 8 11 13 14 15 20 27 38 47 48 47 45 44 46 60 100 99 99 100 100 92 100 99 95 92 88
9 7 6 6 5 5 5 5 4 4 4 4 4 4 4 4 4 4 4 4 5 7 10 13 17 22 26 34 44 47 45 52 93 99 88 99 100 99 99 100 94 99 95
6 7 8 8 7 7 7 7 6 5 5 5 5 5 5 5 5 5 5 4 4 4 4 5 5 8 13 21 27 31 41 51 55 96 97 99 100 99 99 100 100 100 100
14 14 10 8 9 9 9 8 8 7 7 7 7 7 6 6 6 6 6 6 6 7 7 7 5 5 5 5 13 27 30 36 54 87 98 99 99 98 100 98 100 100 100
13 10 10 10 10 9 8 9 9 8 8 9 9 9 8 8 8 8 8 8 8 8 9 10 11 10 7 5 6 10 32 33 37 62 88 100 98 92 99 96 99 99 100

GFSMA_700_rhum_108.txt.gz
RH
81 73 78 56 65 73 82 83 84 85 77 76 76 87 80 77 84 66 48 42 34 27 22 22 21 23 27 17 16 20 22 27 34 39 45 45 44 42 42 43 43 44 45
89 78 65 77 76 61 64 63 76 85 87 83 85 83 92 86 78 83 71 51 43 34 27 24 25 24 44 47 48 23 22 25 33 42 46 47 46 44 43 42 44 47 47
70 59 61 64 59 56 51 48 48 55 78 86 72 75 88 96 92 90 88 75 70 49 36 28 25 27 26 34 60 63 50 26 30 38 46 48 47 45 42 42 46 49 57
67 61 57 55 55 52 45 37 36 37 36 33 39 74 89 94 99 97 100 99 87 70 52 42 38 35 32 29 28 54 72 72 66 42 42 47 48 43 40 44 50 60 65
69 64 60 58 55 47 43 42 45 43 40 40 39 49 61 76 84 92 99 100 100 92 78 66 74 49 43 37 31 31 36 66 65 61 45 44 44 40 42 48 57 61 66
74 71 64 61 60 52 48 49 47 43 39 34 39 38 44 51 63 68 83 88 95 92 96 89 83 72 66 46 40 34 31 33 48 61 62 48 41 40 46 51 62 63 69
80 74 65 67 62 54 53 50 46 40 35 33 36 47 50 46 45 49 56 76 85 84 100 100 85 80 89 71 52 46 36 39 39 43 61 66 62 61 54 66 66 72 72
82 78 74 68 61 57 53 49 45 44 40 36 25 41 61 65 64 61 55 57 64 80 81 83 94 90 95 62 49 51 43 47 45 53 58 62 76 72 69 76 71 72 73
90 86 80 67 61 56 52 50 43 33 30 37 31 41 62 76 72 69 69 67 68 72 78 85 83 87 84 67 81 63 58 53 50 51 68 72 75 77 80 82 77 77 81
89 88 72 68 59 55 51 47 36 36 45 42 42 42 62 73 76 86 80 68 72 72 89 95 96 88 80 86 91 79 77 64 64 51 64 82 87 90 88 91 86 81 80
82 81 71 63 60 54 34 38 49 51 52 56 54 61 74 74 82 93 91 87 96 92 89 96 86 88 99 92 88 79 88 73 80 64 67 88 94 100 99 100 97 91 88
88 78 69 64 54 46 66 63 74 73 65 60 60 66 74 76 76 79 80 92 99 98 100 99 88 90 97 100 100 99 98 96 82 86 84 87 98 100 98 100 100 99 98
68 68 63 57 69 76 98 100 91 83 90 82 79 77 91 95 98 87 89 92 99 97 97 99 99 99 98 99 100 99 100 98 97 87 87 98 98 98 100 98 99 100 100
51 70 84 96 99 100 100 100 100 100 100 100 99 100 100 100 100 100 98 100 99 100 100 97 100 99 99 99 100 100 100 100 99 96 97 93 97 98 97 97 100 100 100
99 99 99 99 97 86 81 97 100 100 100 99 100 100 100 99 100 99 100 100 100 100 98 98 100 99 100 100 100 100 100 99 100 100 98 96 98 99 100 100 99 100 98
93 80 74 71 62 60 45 62 96 100 100 100 99 100 99 100 100 100 100 100 100 100 100 98 98 100 100 100 100 99 100 100 98 94 92 98 99 99 99 100 100 100 100
38 31 29 27 24 22 20 20 22 37 45 76 98 100 99 99 100 99 99 100 100 100 100 99 99 99 100 100 99 100 100 99 100 100 100 98 98 98 98 98 99 100 98
14 13 12 12 12 11 11 10 11 11 11 11 14 26 38 47 94 99 99 99 99 100 100 100 100 100 100 100 99 100 100 100 100 100 99 99 100 99 98 99 98 100 99
12 13 13 14 14 13 13 12 12 11 12 12 12 11 11 13 19 30 52 50 85 100 99 99 99 100 100 100 100 100 100 100 100 100 99 99 99 98 100 100 99 99 98
15 14 14 13 12 10 9 6 5 5 4 4 4 5 6 9 11 12 12 15 20 30 44 88 99 99 100 99 100 100 100 100 99 99 100 98 99 100 98 99 98 99 100
14 14 12 10 8 7 6 6 6 5 5 5 5 4 4 4 3 4 5 7 10 12 13 20 37 54 70 90 97 99 99 100 100 100 100 99 99 98 100 92 94 98 100
13 11 9 7 7 9 11 12 14 11 8 6 6 5 5 4 4 4 4 4 4 4 4 9 12 14 21 32 44 53 59 58 58 83 83 98 100 98 100 99 100 100 100
13 12 14 18 21 20 19 14 10 9 8 7 7 6 6 6 6 6 5 5 5 4 4 4 4 5 8 12 15 20 28 39 45 43 44 60 77 98 99 100 100 100 100
33 30 25 26 23 17 14 11 9 8 8 8 8 8 7 7 8 8 7 7 6 6 6 5 5 4 4 4 4 5 10 14 16 27 42 45 52 94 100 99 99 100 99
34 33 31 22 12 10 10 9 9 8 8 8 8 8 8 8 9 8 8 9 9 9 9 8 7 7 7 6 6 5 4 4 6 13 18 33 50 57 98 86 99 99 99
34 16 11 10 10 9 8 8 8 8 8 9 9 9 9 11 13 13 12 12 11 12 12 13 15 14 14 12 11 9 7 5 5 5 9 18 30 55 57 68 100 99 99

GFSMA_700_rhum_111.txt.gz
RH
81 84 93 82 76 79 52 62 79 77 79 86 79 68 69 83 88 86 82 77 71 46 37 34 27 20 18 18 22 17 16 19 22 29 34 43 45 45 42 41 42 42 44
75 82 91 75 79 67 55 66 73 71 65 67 82 89 86 81 83 89 90 86 84 75 49 41 39 31 24 21 30 36 26 18 21 27 35 43 47 47 44 42 41 42 46
72 89 96 93 86 59 68 75 69 64 76 71 70 71 94 94 85 88 85 87 88 89 82 58 54 43 33 31 26 26 59 56 25 25 32 41 47 47 47 43 41 43 47
66 77 79 82 68 64 63 60 57 52 45 38 42 47 44 54 70 90 92 98 98 94 99 92 66 48 41 48 38 32 25 48 66 61 45 45 47 49 49 44 41 45 51
75 69 75 70 64 61 63 61 58 50 44 51 58 53 48 45 54 77 77 94 98 92 95 94 92 71 51 52 63 46 36 29 52 80 78 56 47 48 49 44 41 46 56
79 80 76 71 74 68 64 60 56 50 47 49 48 45 43 39 38 60 87 71 68 80 92 95 94 97 90 67 69 57 59 42 36 36 58 70 61 47 46 40 40 48 61
81 90 89 81 80 78 68 63 63 59 52 52 51 45 40 36 32 30 46 74 58 49 57 64 78 82 84 90 85 63 77 54 46 43 40 44 58 62 51 39 43 50 65
75 94 94 91 84 80 70 70 64 58 58 55 52 45 34 28 29 28 25 41 54 60 59 58 57 77 81 90 98 70 83 85 56 46 50 52 46 60 66 62 64 58 71
80 98 100 100 96 90 82 73 66 63 60 58 54 49 45 37 38 35 32 35 70 74 74 72 78 75 70 78 84 91 87 87 64 54 53 58 58 49 62 78 73 72 77
86 97 90 99 98 94 83 76 68 65 60 52 35 33 41 51 64 54 53 44 49 58 73 79 82 87 73 73 83 83 92 93 87 79 57 69 63 68 70 72 76 79 82
100 100 94 91 91 87 78 73 68 64 55 48 42 40 48 61 61 63 58 60 69 62 66 79 76 82 96 96 96 97 99 100 98 87 81 76 72 67 86 81 96 91 89
99 97 99 98 90 85 78 71 62 54 51 46 70 66 78 79 64 67 70 70 71 70 68 70 77 81 88 98 100 92 95 100 99 94 98 88 86 81 76 82 99 97 99
87 81 78 72 72 76 79 67 68 85 96 98 97 95 95 97 92 90 76 75 83 80 92 77 91 92 96 99 100 100 99 98 98 98 96 96 96 93 82 84 98 100 100
70 70 68 65 77 68 66 95 93 82 81 95 99 98 100 100 99 85 91 99 100 97 92 90 98 100 100 98 100 98 100 98 99 100 100 99 98 97 93 96 96 95 98
98 99 99 100 99 99 97 97 89 76 50 78 99 100 100 100 99 100 98 100 99 100 95 100 97 98 99 100 98 96 99 100 98 99 100 100 100 100 98 100 99 100 98
93 97 96 78 41 39 34 34 32 28 21 18 24 77 99 99 99 99 99 100 99 97 100 99 100 100 100 99 100 100 99 100 100 99 100 100 100 100 99 99 98 98 100
20 19 18 16 14 13 12 12 12 12 12 12 11 11 17 66 98 99 99 99 99 99 99 100 100 100 99 100 99 99 100 99 100 100 100 100 100 100 99 99 99 100 93
12 12 12 13 14 14 14 13 13 12 11 10 9 10 11 12 11 10 16 39 98 99 99 99 99 100 100 98 99 100 100 100 100 99 100 100 100 100 100 97 93 95 99
15 15 15 14 14 13 12 11 9 7 6 5 4 4 4 4 5 8 11 12 12 23 81 94 100 99 100 100 100 100 99 99 100 100 100 100 100 99 100 100 99 100 100
16 16 15 15 14 13 12 10 7 7 8 9 8 7 6 5 5 4 4 4 6 10 12 12 15 21 72 95 99 99 99 99 99 100 100 100 100 100 100 100 100 100 100
17 16 16 14 13 13 14 18 21 25 24 19 13 11 9 8 7 6 5 4 4 4 4 4 8 12 13 17 43 93 99 99 99 100 100 100 99 99 100 100 99 100 96
20 29 36 38 36 32 31 30 28 24 19 16 15 10 9 8 8 8 7 6 6 5 5 4 4 4 5 9 14 19 26 51 96 99 99 99 100 100 100 99 98 92 93
41 44 39 38 37 32 25 16 11 10 9 9 8 8 8 8 8 8 8 8 8 8 7 6 5 5 4 4 4 6 10 15 20 34 62 70 65 82 98 98 100 97 93
43 42 41 29 15 11 10 9 9 8 8 9 8 8 8 8 8 8 8 8 8 10 9 9 8 7 6 6 5 4 4 4 6 10 14 20 37 45 46 57 99 100 99
45 29 15 12 10 10 9 10 9 8 7 7 8 10 10 10 12 13 15 13 10 11 13 12 11 10 10 8 7 6 6 4 4 4 4 7 10 17 36 44 52 73 98
24 14 11 10 10 12 12 10 10 10 10 9 8 8 9 12 15 20 28 30 22 16 14 15 18 17 16 14 13 12 9 8 7 5 5 4 4 6 12 23 44 52 96

GFSMA_700_rhum_114.txt.gz
RH
64 75 76 78 83 89 81 74 70 73 87 82 78 73 76 71 78 80 88 85 80 74 63 49 41 37 32 24 21 19 21 19 15 18 24 30 36 44 45 41 39 41 42
44 52 62 75 81 92 83 82 67 64 84 84 87 82 88 88 88 90 87 89 90 86 84 76 55 52 40 35 30 27 28 36 24 18 22 30 36 45 47 44 41 41 42
40 52 60 72 84 78 72 77 74 63 81 85 89 95 94 91 95 98 96 89 94 92 85 88 85 81 65 57 50 34 33 27 44 53 23 26 35 45 48 46 44 41 40
37 49 64 72 94 96 90 88 72 61 70 71 59 57 58 59 58 72 81 81 92 95 96 99 87 93 91 70 53 41 50 38 32 35 63 42 31 41 49 50 47 45 39
17 50 62 70 83 94 97 91 71 62 60 60 57 49 44 50 53 51 47 50 61 76 88 100 96 99 96 94 88 55 53 57 80 42 39 70 73 46 46 50 51 49 41
17 67 75 72 80 80 83 87 82 74 64 66 59 48 45 48 49 49 46 43 39 39 67 77 83 91 96 98 92 90 72 58 71 68 48 46 67 85 66 51 49 50 43
15 29 77 96 90 98 89 83 81 76 71 64 62 60 57 52 51 53 49 41 38 35 31 36 62 64 65 73 87 93 99 91 75 72 78 54 47 48 63 71 54 46 41
34 32 48 74 93 99 94 92 88 85 77 70 67 64 59 49 47 44 37 33 30 30 33 27 36 48 46 50 50 51 74 98 86 78 71 83 70 51 48 50 68 58 44
34 50 91 82 85 100 100 100 99 99 89 79 71 66 64 55 44 29 22 22 26 40 38 34 38 70 67 63 63 58 62 95 99 96 79 90 94 60 63 62 55 70 66
75 67 72 98 100 100 100 99 98 99 96 83 73 70 68 65 53 35 23 21 28 41 54 42 40 69 71 75 70 64 62 73 99 99 84 78 84 68 65 64 63 55 63
98 81 76 82 82 92 99 98 98 99 87 79 76 71 67 55 46 48 29 29 39 46 59 60 59 54 64 80 82 76 78 75 84 94 93 99 98 79 68 67 76 72 72
94 94 94 93 89 90 92 86 93 92 84 76 69 64 54 64 72 96 97 58 83 94 71 65 59 65 70 73 78 82 84 94 96 98 94 99 96 95 92 78 84 84 82
98 83 93 87 81 78 77 70 68 67 69 77 80 71 82 99 99 98 99 76 90 61 87 98 76 69 70 78 77 80 86 95 92 97 91 100 99 98 95 90 92 85 89
98 98 96 80 86 76 95 98 99 98 88 90 85 64 40 83 100 100 100 98 84 89 96 77 79 97 93 96 88 87 91 100 98 99 96 91 100 98 96 96 98 90 97
100 99 100 100 100 100 99 98 93 84 77 83 83 62 27 17 41 89 100 99 98 98 99 98 100 99 100 98 99 99 98 100 99 100 100 100 97 100 99 98 100 100 99
21 22 22 22 20 19 17 18 15 14 12 12 11 11 11 11 11 12 41 99 99 99 98 98 100 100 99 100 99 99 100 100 100 99 100 100 99 100 99 98 100 99 99
14 14 13 13 14 14 14 14 14 14 14 13 12 12 11 10 9 9 11 17 75 94 95 99 99 99 100 100 100 100 100 100 100 100 100 99 100 98 98 99 100 100 100
15 16 16 16 16 16 15 14 14 12 11 10 8 7 6 6 5 4 4 5 8 13 24 19 71 98 99 99 100 100 100 99 100 100 99 100 100 100 99 99 99 100 99
18 18 19 19 19 18 16 15 14 12 11 11 12 13 14 14 12 9 7 6 5 4 4 7 11 21 97 99 100 99 100 99 100 100 99 100 100 100 100 99 100 99 99
28 28 28 28 29 31 32 33 31 31 30 28 28 25 23 22 21 19 14 10 8 6 5 4 4 5 9 54 88 97 99 99 100 100 100 100 100 99 99 100 100 99 100
31 31 33 39 43 43 43 42 41 40 39 35 27 21 17 13 11 10 10 9 8 7 6 6 5 4 4 4 8 12 15 61 99 99 100 100 100 100 100 100 100 100 100
36 43 45 45 44 43 37 24 15 12 10 9 9 9 8 8 8 8 8 8 7 7 7 7 6 6 5 5 4 4 5 11 13 92 99 99 99 99 99 100 100 99 100
42 44 45 44 34 20 14 11 9 9 9 9 9 8 8 9 9 8 8 9 9 8 8 7 7 7 7 6 5 5 4 4 5 10 17 49 91 99 99 99 99 99 99
42 45 42 27 18 13 10 9 9 10 9 9 9 9 9 8 8 7 7 7 6 7 10 12 10 8 8 8 7 6 6 5 4 4 4 8 13 33 95 99 98 99 100
45 40 28 18 12 10 9 10 10 13 16 20 23 18 12 9 8 7 6 7 7 8 10 12 17 16 13 11 11 9 8 7 6 5 5 4 4 8 13 37 88 78 48
40 30 18 12 10 10 11 15 19 22 26 31 33 26 16 9 7 7 8 11 11 13 13 13 17 28 23 17 15 14 13 10 10 7 6 6 5 4 3 8 19 35 52

GFSMA_700_rhum_120.txt.gz
RH
8 8 9 20 40 60 59 77 88 89 84 80 85 86 82 85 88 80 71 69 72 78 82 81 76 68 64 69 60 39 33 24 21 19 20 18 16 20 26 29 37 44 45
8 9 9 9 10 26 51 56 70 84 83 88 85 84 86 83 88 81 76 75 78 82 84 83 87 87 83 80 83 80 46 38 32 25 27 28 20 18 21 28 33 43 48
14 12 9 8 9 9 15 39 50 62 71 76 87 86 87 87 86 86 91 90 91 96 99 96 95 91 99 97 95 91 87 76 50 39 32 28 41 40 25 22 29 37 46
15 16 16 14 12 11 11 29 45 47 51 59 72 80 86 91 91 84 90 91 96 90 95 96 96 96 98 100 100 98 94 89 90 69 53 38 42 35 55 53 30 31 40
24 21 22 20 17 15 12 25 48 74 74 73 78 83 86 96 92 78 81 78 65 53 53 53 52 76 69 84 87 74 94 100 96 93 88 78 58 48 59 45 51 49 35
26 29 29 31 30 24 18 16 97 75 99 89 87 87 82 87 97 80 74 70 63 54 48 48 49 50 52 52 50 45 39 53 81 95 89 93 86 66 66 70 42 48 69
26 22 23 38 42 38 25 29 36 99 76 90 99 94 91 98 96 86 77 70 67 60 52 52 54 55 54 54 52 49 44 40 40 53 83 95 99 89 81 75 78 60 51
33 40 35 40 51 43 34 26 36 71 94 82 97 100 88 98 100 97 95 86 77 67 64 62 61 61 59 51 40 33 28 26 31 36 45 63 84 96 98 97 94 82 79
48 60 54 52 50 39 66 98 76 62 70 97 99 99 100 99 99 100 98 92 78 70 67 66 64 60 49 43 29 23 19 20 23 28 34 47 56 68 85 88 91 93 86
50 64 74 76 79 70 71 80 98 100 82 89 94 91 93 96 73 76 95 99 97 76 68 65 60 54 49 44 38 31 30 23 26 36 32 33 43 53 55 63 82 92 100
35 61 74 85 92 98 100 100 91 94 78 71 61 75 98 96 90 88 59 71 73 74 70 62 50 42 40 40 53 59 37 23 37 54 46 45 58 67 68 65 64 70 95
51 56 58 57 62 70 89 98 98 86 81 80 76 72 74 73 81 77 67 66 62 55 51 53 48 52 70 68 83 85 82 72 63 61 53 50 64 77 77 80 80 76 95
10 10 12 26 42 70 92 99 98 95 82 79 78 78 85 85 80 75 80 83 74 60 55 24 16 16 36 62 78 81 71 70 86 79 64 63 58 67 86 87 84 87 82
9 9 9 10 11 12 13 14 14 14 14 15 16 19 20 15 12 11 10 10 9 8 9 11 14 13 15 16 71 70 75 75 90 93 88 72 61 65 73 88 94 95 87
13 14 15 15 16 17 18 18 17 17 16 16 15 15 14 14 14 13 13 11 10 11 12 10 10 9 9 12 38 100 100 99 99 100 96 99 89 74 73 76 79 84 83
16 16 21 26 28 27 28 28 28 28 27 26 25 22 20 17 15 13 12 11 10 10 10 10 9 8 7 6 10 53 98 100 100 100 100 100 100 92 83 86 78 79 94
17 23 34 34 28 28 29 30 31 33 35 37 38 39 39 38 36 33 31 29 27 26 25 24 22 22 20 15 7 5 9 67 99 99 99 99 100 100 98 97 89 90 84
20 35 38 28 27 28 28 29 32 35 37 39 41 41 41 41 40 39 38 36 36 36 36 37 33 30 26 23 20 16 6 5 12 91 98 99 100 100 100 100 99 100 95
28 38 30 27 28 29 30 31 34 36 37 35 32 27 23 19 17 13 12 11 10 10 9 9 10 10 12 16 18 16 16 12 5 6 25 97 99 99 100 100 100 99 100
36 34 28 29 30 31 32 33 34 34 31 27 22 16 12 9 8 7 7 7 6 6 6 6 6 6 6 6 6 7 11 11 11 7 5 7 80 98 99 98 100 100 98
38 29 29 31 32 32 33 34 34 30 23 16 10 8 7 7 8 9 11 13 14 12 10 8 8 7 6 6 6 6 6 6 6 9 9 5 4 79 98 99 99 100 100
36 30 30 32 34 34 34 34 28 20 13 9 8 8 11 15 18 23 26 28 27 22 14 10 8 8 9 7 7 7 7 7 6 6 6 9 7 5 72 98 98 100 99
35 30 30 32 34 35 35 30 20 12 9 9 11 15 20 25 28 30 30 28 25 20 14 10 10 10 9 6 6 5 5 6 6 6 5 5 6 7 5 15 93 98 99
35 31 30 31 35 36 33 25 14 9 9 12 14 18 22 27 33 31 30 28 24 20 16 14 12 10 9 8 8 7 6 6 5 5 5 5 5 6 8 6 7 83 91
36 33 32 33 37 36 31 19 11 9 12 15 22 28 32 34 35 38 37 34 32 29 21 16 12 11 12 15 18 16 15 12 8 7 8 8 5 5 6 7 6 5 9
38 37 35 36 38 36 27 15 10 10 15 21 30 40 41 43 44 45 43 42 40 36 34 31 16 14 23 26 29 31 29 25 23 17 15 13 11 9 6 7 8 7 5

GFSMA_700_rhum_123.txt.gz
RH
8 8 8 9 9 9 9 16 42 61 65 84 88 87 85 85 91 92 88 85 82 73 70 77 85 85 79 70 71 72 70 47 34 25 21 19 19 16 18 22 26 29 37
14 15 14 14 11 9 10 10 13 31 52 63 84 90 88 90 92 91 92 89 88 73 67 65 74 82 84 85 83 81 82 86 74 41 34 25 25 23 17 17 22 28 33
13 14 15 14 14 16 16 12 10 12 43 66 69 83 90 94 92 98 94 91 94 95 94 91 89 99 90 94 99 99 95 95 90 89 67 38 32 31 36 28 22 24 31
21 18 17 17 18 18 19 18 16 12 12 42 72 80 76 80 89 90 95 97 95 100 99 94 94 77 93 92 97 99 99 98 98 98 93 90 59 40 34 40 46 37 26
22 20 20 19 17 19 25 26 23 20 21 56 80 67 82 87 92 93 97 99 100 99 91 75 62 54 54 52 57 73 90 96 98 96 98 99 98 88 62 51 38 40 47
25 26 26 23 23 24 21 33 33 26 25 24 64 80 88 95 98 98 95 98 98 88 86 76 68 56 52 51 51 52 54 56 66 94 84 73 87 96 97 89 68 65 72
30 32 33 34 39 39 30 35 40 33 30 33 67 85 80 98 93 99 99 94 90 95 83 78 73 62 54 54 55 57 59 58 55 52 57 61 59 66 95 99 97 75 70
33 35 34 38 41 44 40 42 41 39 33 28 49 95 98 99 86 100 100 97 100 100 99 96 87 72 66 62 62 63 64 60 53 44 39 40 41 57 61 69 86 100 93
30 28 25 38 43 51 54 46 62 60 66 82 56 66 89 87 92 96 95 98 94 94 99 100 95 77 72 69 68 68 64 61 54 44 32 26 46 36 43 58 68 87 91
30 31 44 48 43 48 61 57 53 81 97 86 78 66 48 57 48 46 54 75 76 80 100 98 99 99 88 88 76 74 65 58 50 42 36 26 21 58 38 42 55 70 81
44 36 22 35 51 45 47 62 69 80 85 77 68 80 74 67 68 70 62 71 81 91 96 96 97 93 91 90 65 47 41 37 35 36 37 41 28 35 75 69 49 52 60
7 7 7 8 8 9 10 12 18 51 82 82 75 73 74 76 83 90 76 72 71 69 76 76 72 67 65 50 33 27 41 54 58 71 78 70 47 30 41 67 72 63 58
9 11 13 14 14 15 16 16 16 16 14 13 13 13 12 16 22 26 19 13 12 11 11 13 14 13 14 15 22 23 18 24 63 83 84 82 72 60 54 58 73 73 71
16 17 16 16 18 24 27 25 25 25 26 24 21 19 17 16 16 15 15 15 15 14 14 13 13 12 12 11 11 10 10 18 17 25 69 73 73 80 79 65 62 75 74
18 17 17 24 32 34 28 24 25 26 27 28 30 31 31 30 28 26 24 23 23 24 22 19 17 15 13 12 10 9 8 7 10 26 94 100 98 84 92 86 76 68 70
18 18 21 33 36 30 24 26 27 27 28 29 31 33 36 37 38 38 39 39 39 38 38 37 36 35 34 30 25 21 19 16 8 8 34 39 97 99 94 96 91 73 72
19 18 25 35 32 25 27 27 28 28 28 30 33 34 34 33 33 32 30 29 28 26 24 21 18 18 21 26 30 34 33 29 24 21 15 6 21 96 100 98 95 100 88
19 19 28 35 27 27 29 30 30 29 29 31 32 31 29 26 24 20 17 13 11 9 8 7 6 6 6 6 6 7 10 13 19 23 23 21 11 7 54 99 100 97 100
19 20 30 34 27 28 29 31 31 30 30 30 29 27 22 16 11 8 7 6 6 6 8 9 10 10 9 8 8 7 7 6 6 6 8 17 19 15 6 80 98 100 98
19 22 35 33 29 27 28 32 32 31 31 29 24 18 12 8 7 7 8 11 14 16 19 18 17 15 13 10 9 10 10 9 8 7 6 6 6 11 14 6 72 98 99
20 25 37 34 29 26 26 31 33 32 30 26 18 10 7 7 9 13 19 21 21 20 19 18 17 17 16 16 17 19 21 20 17 11 8 7 6 6 6 11 7 61 97
21 26 38 35 30 28 28 32 34 33 29 22 11 8 8 10 14 18 20 24 26 24 25 26 26 26 26 27 24 20 18 17 17 16 15 11 7 6 6 5 10 8 66
24 26 39 37 34 34 31 31 35 34 27 15 9 8 11 14 20 25 29 29 32 35 35 32 30 30 29 25 24 25 28 24 18 10 6 9 7 7 6 5 5 8 8
26 27 40 39 38 37 33 32 36 34 24 12 8 10 15 22 30 32 34 38 39 40 40 36 36 35 33 35 34 27 17 11 9 7 7 6 6 6 6 6 5 5 8
29 27 42 42 42 41 36 35 38 34 19 10 9 14 21 31 34 38 38 39 38 40 42 42 41 41 40 35 22 14 12 10 8 7 11 15 9 6 6 6 6 5 5
30 27 44 46 46 45 39 39 40 34 16 9 11 20 31 36 40 45 46 44 42 42 42 43 46 46 36 22 17 18 20 18 16 11 19 22 17 18 11 8 8 8 6

GFSMA_700_rhum_126.txt.gz
RH
13 14 14 14 14 13 13 11 10 9 11 32 59 73 76 83 92 92 87 86 88 83 78 78 78 82 91 89 83 76 74 77 76 61 37 26 22 20 16 16 19 22 26
14 13 13 13 14 14 14 14 14 15 13 10 15 50 78 93 94 97 98 97 91 90 86 87 82 74 77 83 94 89 84 84 85 88 84 55 34 27 25 21 18 20 26
18 19 21 18 15 14 14 14 14 16 15 15 14 14 53 100 100 100 99 100 94 94 88 88 86 81 91 94 97 97 99 96 93 93 93 93 82 42 33 32 30 20 21
18 18 20 19 18 17 17 17 17 18 18 23 22 30 18 55 86 100 99 99 100 98 94 99 99 100 99 99 98 94 97 96 99 99 98 98 95 92 59 48 38 40 40
23 23 22 21 21 24 26 27 30 26 23 28 28 29 22 36 53 98 98 98 99 98 98 97 96 92 86 72 64 57 67 79 84 88 95 100 100 99 99 85 64 51 48
28 26 23 26 27 30 33 34 29 26 32 35 34 46 28 40 88 80 94 86 91 93 93 100 90 97 91 78 64 55 52 57 58 60 70 82 94 98 97 97 100 96 88
27 25 27 26 30 33 36 37 35 35 34 37 39 42 60 68 84 100 99 100 99 98 100 97 99 100 94 86 76 63 54 51 50 51 54 56 65 69 80 94 90 99 99
25 25 24 33 40 40 34 36 45 40 47 44 37 42 48 65 91 99 94 96 97 98 99 100 100 100 100 99 90 75 64 60 59 58 59 59 59 57 56 62 64 70 83
36 31 38 34 25 43 40 33 41 45 55 65 63 71 78 83 86 76 66 80 72 83 94 85 96 86 93 99 98 85 73 67 65 66 67 67 66 62 56 46 38 50 63
40 23 11 7 8 11 17 16 21 30 50 73 82 82 75 73 84 77 63 63 69 84 77 84 92 97 99 100 100 97 82 74 72 73 74 73 73 64 58 49 40 39 56
7 7 7 8 10 11 12 13 13 12 16 41 71 78 86 83 80 77 70 73 79 77 80 83 92 93 94 91 86 78 84 95 91 86 86 62 52 53 46 39 42 37 43
9 10 13 15 16 16 18 22 23 22 22 20 18 15 15 17 17 23 32 38 50 54 48 56 52 63 70 70 69 64 64 61 52 40 30 35 45 48 46 44 44 42 34
14 16 17 16 17 22 28 29 26 21 22 23 24 24 25 25 23 20 18 17 16 15 14 14 14 13 12 13 16 13 14 18 21 22 20 19 22 54 71 76 79 72 50
16 17 17 18 22 30 32 28 22 24 25 25 26 25 25 25 26 28 29 29 28 28 28 25 22 18 16 15 14 13 12 11 11 10 11 10 12 18 20 53 79 80 80
16 18 18 19 26 31 29 24 24 26 27 27 27 26 27 28 28 29 30 32 33 32 31 31 32 32 32 32 30 29 26 21 16 13 11 9 7 8 13 19 33 71 76
16 19 19 19 24 29 28 24 25 26 28 29 28 26 26 27 28 29 29 29 28 27 26 24 24 24 26 26 28 29 31 32 33 33 30 26 22 18 11 10 11 40 72
18 18 19 20 25 30 28 25 25 26 29 30 29 27 27 28 28 26 24 20 18 15 12 9 8 7 6 6 7 9 10 10 11 12 15 20 28 31 28 24 19 9 48
23 20 19 20 25 32 29 26 23 24 28 31 30 28 27 26 23 18 14 10 8 6 6 7 10 11 12 12 12 10 8 8 7 6 6 6 6 8 11 20 24 22 11
27 25 19 20 26 33 31 26 23 24 27 31 32 29 28 23 15 9 7 6 7 10 14 15 14 13 13 13 13 14 14 14 15 15 15 12 10 8 7 6 7 17 20
26 27 23 20 24 35 34 28 27 26 27 31 33 31 26 18 10 7 7 10 14 18 18 18 16 15 16 20 22 20 17 17 16 18 17 17 19 19 14 9 7 6 10
31 29 28 22 23 35 36 32 32 30 28 32 34 32 24 13 8 7 10 12 15 17 21 20 19 23 26 25 20 16 13 12 11 9 9 9 10 12 14 14 10 8 6
39 34 30 26 24 36 39 36 37 34 29 32 36 32 21 11 8 9 13 18 21 23 26 30 30 29 28 25 22 21 18 13 10 10 8 6 6 6 8 13 10 9 7
51 45 39 35 26 36 41 41 42 38 32 33 38 31 19 11 9 12 19 27 29 34 36 36 35 34 30 31 26 21 17 14 13 11 9 8 7 6 5 5 8 7 7
61 52 44 40 28 35 43 45 46 42 35 36 39 28 16 9 10 16 26 31 34 39 42 41 39 37 37 38 38 36 29 21 17 15 12 10 8 7 6 5 5 6 6
69 57 49 46 29 36 46 48 54 49 38 39 40 26 12 10 14 24 31 35 37 41 44 44 45 45 44 44 45 41 37 29 22 19 15 12 11 10 9 7 7 7 8
77 60 53 49 30 37 49 57 69 53 44 42 41 22 11 15 24 35 39 40 41 46 47 49 50 50 50 49 50 50 45 35 28 22 19 19 16 18 14 11 9 8 12

GFSMA_700_rhum_129.txt.gz
RH
16 14 14 15 15 15 15 14 14 14 14 14 14 11 10 20 46 68 82 88 90 89 92 88 84 79 81 87 90 92 89 84 78 78 78 70 42 27 18 16 14 16 20
17 21 17 16 20 19 16 15 14 13 13 12 14 14 14 13 12 35 71 87 97 96 100 97 92 90 87 87 88 88 84 84 83 83 85 84 83 68 34 24 21 18 17
23 21 17 17 18 19 17 16 17 16 15 15 16 18 18 18 28 18 42 89 81 96 94 98 92 92 93 93 84 83 87 89 91 92 93 94 93 90 88 65 33 29 24
27 21 21 21 22 18 17 16 17 17 20 22 23 22 20 23 28 41 34 54 98 98 80 87 90 98 94 99 98 99 98 100 100 100 100 100 99 99 96 94 91 67 48
25 25 26 24 20 18 18 22 27 27 26 26 29 27 22 28 34 47 32 49 80 66 88 93 100 99 100 98 97 98 94 96 88 85 86 88 96 96 99 100 98 92 90
29 30 25 22 19 22 25 26 26 28 28 29 36 35 31 50 42 52 50 55 71 81 85 100 96 100 97 89 81 88 84 76 66 56 54 60 70 74 86 98 99 100 99
31 24 21 20 22 35 38 36 30 30 34 34 39 43 38 36 40 57 54 61 70 85 88 97 100 99 99 91 99 98 98 90 76 62 54 53 54 55 73 74 76 92 97
29 25 27 25 32 12 17 24 28 35 37 38 44 50 49 69 59 58 63 64 79 89 84 79 84 86 100 100 99 97 100 94 88 78 66 58 57 57 59 67 61 63 72
22 29 35 23 8 7 8 10 10 11 13 18 34 52 56 59 67 72 59 56 68 70 80 85 74 64 72 74 77 86 72 72 98 95 84 70 62 62 60 60 61 65 64
9 11 7 7 8 11 13 15 17 19 20 19 18 21 43 58 59 61 81 80 63 66 59 59 51 59 54 50 62 67 74 74 71 100 100 85 73 68 67 68 66 68 67
7 7 8 11 13 16 17 21 24 24 22 20 20 21 20 18 17 16 17 36 61 73 81 79 66 64 70 75 75 93 98 84 83 86 88 92 94 85 74 82 78 80 68
9 10 12 15 17 18 20 26 27 25 20 20 22 23 23 23 24 25 25 24 20 16 15 23 40 50 48 48 49 34 59 66 67 63 60 60 62 67 68 59 59 52 45
11 13 15 18 18 19 24 27 24 23 21 23 24 25 26 25 24 24 25 25 25 26 28 28 25 21 17 15 14 13 13 12 13 15 15 14 16 24 24 27 27 22 26
12 14 16 18 19 19 24 26 26 23 23 23 24 27 28 27 26 24 24 24 25 26 26 28 30 29 30 30 31 30 28 24 21 19 16 14 12 12 11 10 11 10 13
13 14 16 18 19 20 22 23 25 24 23 22 23 26 29 28 26 25 24 24 24 24 24 25 25 24 24 24 25 26 28 29 30 31 31 31 30 26 22 16 13 12 9
14 15 17 19 19 20 22 24 26 24 22 21 21 24 29 30 28 26 25 24 23 21 21 18 17 17 16 15 15 14 14 13 13 15 17 20 23 27 29 30 30 29 24
16 18 23 25 21 19 20 24 27 26 24 22 22 23 27 31 30 27 25 22 17 14 11 8 7 6 6 6 6 6 6 6 6 6 6 6 6 6 6 7 8 10 16
18 19 23 27 27 20 19 25 31 30 27 25 26 24 27 32 32 28 24 17 12 8 7 6 8 12 14 14 13 12 12 11 11 10 11 12 13 13 13 13 12 10 6
25 24 26 26 27 26 21 22 30 33 31 30 30 26 26 32 34 30 22 14 9 7 8 10 13 14 13 14 13 13 13 16 17 16 14 9 7 7 6 5 5 5 8
37 37 36 32 30 28 25 22 28 35 35 35 34 31 28 33 35 31 20 13 8 8 11 13 14 16 15 15 16 17 18 16 11 13 11 9 8 8 7 7 7 6 5
50 52 50 45 40 34 31 25 27 36 38 40 40 34 30 35 36 29 20 11 8 10 15 20 21 20 23 26 26 25 21 12 10 10 9 10 10 10 9 8 7 7 7
55 61 61 59 50 42 38 32 27 38 41 44 45 42 34 36 38 30 17 10 10 14 21 27 26 26 29 31 33 31 27 21 13 17 13 11 12 11 10 10 10 9 9
70 71 77 74 67 55 47 42 29 37 44 48 54 52 40 39 38 27 15 9 14 22 31 33 31 34 35 39 38 36 34 30 25 22 21 15 17 13 12 12 11 10 10
80 83 87 87 77 64 54 49 31 38 47 54 65 52 52 43 39 25 12 11 16 28 37 39 38 41 44 46 46 44 41 38 35 35 36 27 25 21 16 14 13 10 10
84 92 99 96 95 78 65 58 33 38 49 66 73 61 64 44 37 21 11 15 26 35 41 40 46 49 51 52 51 49 49 47 44 44 44 41 34 30 27 22 16 14 14
76 94 100 100 100 88 72 64 34 39 51 78 78 76 64 47 34 14 14 26 36 43 43 48 53 56 58 60 62 64 64 61 57 51 54 56 52 50 40 32 24 19 18

GFSMA_700_rhum_132.txt.gz
RH
14 13 14 19 17 14 14 17 17 15 14 14 13 14 14 14 14 16 28 43 62 69 83 90 95 91 90 86 85 86 91 93 91 90 85 81 80 70 44 29 18 14 13
14 19 21 22 18 18 18 19 17 14 13 14 13 14 15 16 16 16 15 13 17 45 73 90 100 99 96 96 95 90 92 90 88 88 89 88 88 88 86 70 38 23 18
18 22 24 23 21 20 21 17 15 16 16 15 16 16 17 19 20 18 21 29 51 30 29 71 86 99 93 99 99 99 96 98 97 96 92 92 93 90 90 93 92 65 29
24 26 24 22 23 23 17 16 16 15 16 18 17 16 19 21 20 20 24 36 41 41 42 40 84 75 81 99 95 99 98 100 95 96 99 99 97 99 100 99 98 97 98
23 18 23 28 25 19 18 21 19 17 17 19 20 22 25 26 24 32 60 61 52 56 40 40 59 95 99 91 99 99 100 98 99 97 99 98 98 98 97 95 98 100 100
19 22 29 23 19 18 22 21 22 25 24 25 26 28 30 28 27 30 47 45 46 47 50 62 56 61 77 100 95 89 96 100 97 99 96 94 74 70 75 89 92 89 95
16 27 26 24 23 22 20 8 18 24 25 22 19 24 26 29 38 38 49 54 50 52 52 65 77 66 61 88 94 91 99 92 91 95 100 99 84 63 55 56 55 62 70
15 18 17 21 29 25 8 8 9 11 12 14 16 15 25 36 45 42 53 56 54 52 54 63 68 67 76 85 87 76 89 96 98 82 78 92 88 92 72 64 57 52 54
8 8 10 13 11 7 7 11 15 18 19 18 18 17 17 18 33 42 49 52 47 57 58 57 56 58 61 66 63 54 66 81 75 81 75 91 100 98 87 77 68 63 57
7 6 7 7 7 9 13 17 19 19 18 19 18 18 18 18 18 19 20 19 18 17 28 60 65 60 53 47 46 47 52 60 72 81 77 81 89 81 86 99 93 75 67
7 8 8 9 11 14 18 19 20 21 19 20 19 19 21 22 22 23 22 22 23 24 23 20 15 29 56 68 64 63 66 67 71 77 91 88 82 82 81 85 88 87 86
8 9 10 12 14 17 19 19 21 21 19 20 20 20 21 23 25 26 26 25 24 23 24 25 24 24 21 17 16 19 25 27 22 26 38 48 58 57 55 54 57 59 62
9 10 11 13 15 18 19 20 20 20 20 20 21 21 21 22 25 27 27 26 23 22 22 26 24 23 23 25 28 28 26 24 20 16 14 13 12 12 13 13 14 16 17
10 11 12 13 15 18 20 20 20 21 21 21 21 20 21 21 24 28 29 28 25 22 22 23 23 22 22 23 23 24 26 26 28 29 30 30 28 26 24 22 19 16 13
10 11 13 14 16 20 22 20 20 21 23 23 22 21 22 22 23 27 30 30 28 24 21 20 20 20 19 18 18 19 19 19 20 20 21 22 23 24 26 26 27 29 29
11 12 13 15 18 24 26 23 20 20 24 26 26 24 24 24 24 26 29 32 30 26 22 17 15 14 12 10 9 8 8 7 7 7 7 8 9 9 9 10 11 12 14
15 16 16 17 19 22 26 28 24 20 22 27 29 28 27 27 27 29 29 32 32 27 23 17 13 10 7 7 8 9 8 8 8 9 9 10 9 8 8 8 8 8 8
25 25 26 26 26 26 25 26 26 23 21 26 32 32 32 32 32 30 31 34 34 29 22 19 12 8 8 12 15 14 14 12 11 10 10 12 14 16 16 14 11 7 5
31 34 40 43 43 44 40 37 32 29 25 25 33 36 37 38 38 37 34 35 36 30 22 16 10 8 10 12 15 17 17 17 17 18 19 16 12 10 11 9 7 7 7
45 49 52 54 59 60 59 55 46 38 33 26 32 39 41 43 45 46 38 38 37 30 21 14 9 9 13 18 20 20 22 24 24 24 23 18 14 12 10 9 9 9 8
52 60 63 65 68 70 75 70 62 49 44 34 30 41 44 48 55 53 49 42 38 29 18 11 10 14 18 23 25 25 24 24 24 25 25 25 20 16 16 15 12 12 11
47 59 66 72 76 79 85 83 76 59 49 44 31 36 46 53 63 57 58 45 39 28 16 11 14 20 27 31 30 27 28 29 26 31 29 29 30 27 24 21 19 17 14
46 53 69 81 87 90 96 96 88 72 58 54 35 38 48 59 69 67 67 46 40 23 13 14 20 27 31 35 34 36 38 38 36 36 34 29 36 32 32 30 28 27 23
46 55 70 86 95 99 100 98 97 82 66 62 40 36 48 68 75 77 71 52 40 20 15 25 35 41 41 41 45 47 44 44 41 44 48 40 46 42 43 45 45 43 38
41 53 65 78 96 100 100 100 98 92 73 70 45 36 52 77 85 88 81 61 51 17 19 32 41 45 49 52 56 53 52 49 45 42 44 31 23 17 18 20 30 41 46
40 64 84 90 100 100 98 86 98 92 76 77 50 37 56 78 78 80 88 78 42 15 22 37 46 53 59 62 62 62 56 46 32 19 20 12 7 8 6 6 10 14 23

GFSMA_700_rhum_135.txt.gz
RH
11 13 12 14 18 19 17 18 17 17 17 14 13 12 12 12 13 13 14 14 14 16 22 50 62 69 74 87 88 90 88 82 78 77 79 83 84 82 75 58 40 27 17
14 14 16 20 20 21 19 19 19 17 12 13 14 12 12 13 14 17 19 18 18 17 15 14 18 56 66 76 99 95 90 98 90 95 94 89 88 88 90 89 84 62 35
17 20 22 23 22 20 21 22 18 14 14 14 14 15 16 16 16 17 18 16 15 16 21 24 27 30 27 67 73 89 96 100 99 95 96 98 98 97 94 92 94 95 96
20 22 21 17 18 23 24 17 16 20 19 16 16 18 18 18 19 21 20 18 23 41 52 57 53 43 38 40 50 69 63 98 98 96 100 99 100 99 100 88 98 99 96
22 21 19 18 24 21 16 16 21 18 17 20 21 21 19 22 23 20 19 20 36 41 39 40 45 45 40 39 62 84 100 94 99 94 88 99 100 100 100 99 100 99 100
23 21 12 23 22 22 21 21 14 6 8 13 18 14 14 16 15 19 22 23 26 30 30 34 41 41 44 45 46 52 68 96 96 93 88 90 96 100 100 94 97 99 100
21 9 11 16 15 18 24 23 8 7 10 12 13 15 15 14 14 21 29 30 35 40 42 42 42 40 44 51 73 81 94 71 75 90 92 99 94 88 92 96 95 78 62
8 8 8 7 9 12 9 7 8 12 16 18 16 15 16 15 15 17 20 24 35 40 48 52 49 48 45 46 67 71 90 85 70 74 83 85 96 86 99 99 99 90 71
6 6 6 7 7 7 8 10 13 18 19 17 15 16 16 16 18 19 20 20 20 20 19 18 20 30 54 58 50 51 56 66 62 64 82 98 97 99 100 99 100 98 96
6 6 7 8 9 10 11 14 18 19 19 17 14 16 18 18 18 19 22 23 24 24 23 22 22 21 19 19 41 66 71 73 64 69 69 82 81 97 91 88 95 95 92
6 7 8 9 10 12 14 17 19 19 19 17 14 17 19 19 20 20 19 23 26 26 25 23 22 21 22 24 24 18 16 23 38 60 62 66 74 88 94 93 88 85 80
7 8 9 10 11 12 14 17 20 20 19 18 17 16 18 20 20 21 21 22 25 27 26 24 22 20 19 21 24 27 27 25 22 17 15 17 16 15 19 33 39 47 54
8 8 9 10 11 13 14 17 21 22 20 19 19 19 18 18 19 21 22 23 26 29 28 26 23 21 20 20 21 23 25 25 25 26 27 26 25 24 21 18 16 14 13
8 8 9 10 12 13 15 19 25 25 22 20 20 22 22 21 20 21 22 24 30 31 30 29 26 22 20 18 18 19 20 21 21 21 22 22 22 23 23 25 27 29 28
10 11 11 12 12 14 16 19 25 28 26 22 20 22 24 25 24 24 24 27 32 32 33 31 28 22 18 16 14 13 12 12 12 13 13 13 13 13 15 16 17 18 20
17 18 18 18 18 17 17 18 20 23 26 26 23 21 25 28 29 29 28 31 34 36 38 36 31 24 19 16 13 10 8 7 8 8 7 7 7 7 7 7 7 6 6
23 25 27 26 28 28 28 28 28 27 26 25 24 22 22 27 31 33 33 34 40 43 42 40 33 27 21 17 12 9 8 11 12 12 12 11 11 10 10 10 10 9 10
29 33 36 38 41 41 41 42 41 40 38 34 31 28 25 26 32 36 38 39 45 51 49 46 37 29 21 15 9 9 11 12 12 12 12 13 13 14 15 15 14 12 9
27 31 39 45 49 52 54 55 57 59 60 54 44 37 33 28 32 38 42 44 50 56 55 51 42 32 23 14 10 12 16 19 20 18 18 16 17 19 19 17 12 8 6
30 32 40 55 62 68 72 76 78 79 78 70 59 48 42 34 32 40 45 49 58 61 61 55 44 35 22 13 11 14 20 25 25 27 28 28 28 26 24 21 18 12 8
34 35 38 51 66 74 79 84 88 91 94 91 79 64 56 46 34 41 48 58 66 68 66 54 44 33 18 11 13 21 24 25 25 27 28 32 32 33 32 31 29 27 24
28 32 36 47 60 69 82 91 95 97 95 93 90 76 64 59 36 40 49 64 72 76 71 56 44 28 15 15 21 27 32 29 24 36 33 34 34 33 34 36 38 39 37
25 28 34 41 50 65 80 97 99 96 97 99 97 93 70 64 47 39 52 71 81 77 76 62 49 25 16 24 32 33 35 35 37 42 38 34 36 32 28 20 13 11 11
31 30 32 40 51 66 84 99 100 94 98 95 92 98 82 78 50 39 53 76 78 76 84 73 49 19 24 40 42 41 40 46 46 49 45 33 21 11 8 6 6 5 5
22 25 26 31 46 69 93 100 100 96 96 91 96 96 90 83 56 40 47 78 82 87 93 84 40 18 34 46 52 50 54 54 50 46 36 15 12 8 6 6 7 8 8
22 22 23 26 32 44 80 95 99 96 94 100 97 96 94 90 69 41 46 74 81 96 96 82 27 21 41 52 59 62 62 58 53 36 21 15 11 8 7 8 9 10 12